Location: Newark
(45.2500°N, 7.5833°E)
Time: 05:30:08
(UTC+00:00)

Tiros 1 despin weight - Visible Passes

Search period start: 27 January 2020 00:00
Search period end: 06 February 2020 00:00
Orbit: 594 x 642 km, 48.2° (Epoch: 26 January)

Date Brightness Start Highest point End Pass type
(mag) Time Alt. Az. Time Alt. Az. Time Alt. Az.
27 Jan ? 17:00:36 10° WSW 17:03:05 14° SW 17:05:34 10° SSW visible
04 Feb ? 05:41:33 10° S 05:44:03 15° SE 05:46:32 10° E visible
05 Feb ? 05:56:33 10° SSW 06:00:14 27° SE 06:03:59 10° E visible
